CW8250 Weather Reports


Display with metric or nautical units.
time (UTC)temp
F
wind
direction
speed
MPH
gust
MPH
rain 1hr
in
rain 24hr
in
rain mn
in
humidity
%
barometer
mb
20180527081459 74 74 6.0 12.0 0.00 0.00 0.00 64 1020.3
20180527075959 74 86 6.0 13.0 0.00 0.00 0.00 63 1020.6
20180527074959 73 100 6.0 12.0 0.00 0.00 0.00 64 1020.6
20180527073959 73 88 6.0 12.0 0.00 0.00 0.00 65 1020.6
20180527072459 71 73 5.0 10.0 0.00 0.00 0.00 67 1020.6
20180527072000 71 65 5.0 10.0 0.00 0.00 0.00 67 1020.6
20180527071459 71 58 5.0 8.0 0.00 0.00 0.00 67 1020.7
20180527070959 70 84 5.0 9.0 0.00 0.00 0.00 69 1020.7
20180527065459 69 66 5.0 7.0 0.00 0.00 0.00 70 1020.8
20180527063959 69 69 4.0 8.0 0.00 0.00 0.00 69 1020.7
20180527063459 69 61 5.0 10.0 0.00 0.00 0.00 70 1020.8
20180527062959 69 73 5.0 8.0 0.00 0.00 0.00 71 1020.8
20180527062459 68 65 5.0 9.0 0.00 0.00 0.00 72 1020.8
20180527062001 67 54 5.0 12.0 0.00 0.00 0.00 72 1020.8
20180527060959 66 83 4.0 6.0 0.00 0.00 0.00 74 1020.9
20180527060459 66 76 5.0 8.0 0.00 0.00 0.00 74 1020.7
20180527054959 64 72 4.0 7.0 0.00 0.00 0.00 77 1020.7
20180527053959 63 71 5.0 9.0 0.00 0.00 0.00 78 1020.6
20180527053500 63 67 5.0 10.0 0.00 0.00 0.00 78 1020.6
20180527053000 62 72 4.0 9.0 0.00 0.00 0.00 78 1020.6
20180527051500 62 78 2.0 6.0 0.00 0.00 0.00 79 1020.7
20180527050959 62 78 2.0 6.0 0.00 0.00 0.00 79 1020.7
20180527050459 62 67 3.0 7.0 0.00 0.00 0.00 79 1020.7
20180527042959 59 104 2.0 3.0 0.00 0.00 0.00 83 1020.7
20180527042000 59 78 3.0 6.0 0.00 0.00 0.00 83 1020.7
20180527041000 58 61 3.0 3.0 0.00 0.00 0.00 83 1020.7
20180527040000 58 43 2.0 5.0 0.00 0.00 0.00 83 1020.7
20180527035459 58 61 3.0 5.0 0.00 0.00 0.00 83 1020.7
20180527035000 58 62 3.0 6.0 0.00 0.00 0.00 83 1020.7
20180527034459 58 47 3.0 6.0 0.00 0.00 0.00 83 1020.7
20180527034000 58 53 2.0 5.0 0.00 0.00 0.00 83 1020.8
20180527033500 58 61 3.0 5.0 0.00 0.00 0.00 83 1020.8
20180527032459 58 58 3.0 6.0 0.00 0.00 0.00 82 1020.9
20180527031459 59 65 4.0 6.0 0.00 0.00 0.00 82 1020.9
20180527030000 59 67 3.0 6.0 0.00 0.00 0.00 83 1021.0
20180527025000 59 75 3.0 7.0 0.00 0.00 0.00 83 1021.0
20180527024000 59 62 3.0 3.0 0.00 0.00 0.00 83 1021.0
20180527023500 59 55 2.0 5.0 0.00 0.00 0.00 83 1021.0
20180527023000 59 60 2.0 3.0 0.00 0.00 0.00 83 1021.0
20180527022459 59 68 2.0 3.0 0.00 0.00 0.00 82 1020.9
20180527022000 59 58 2.0 3.0 0.00 0.00 0.00 82 1020.8
20180527021459 59 62 1.0 3.0 0.00 0.00 0.00 82 1020.8
20180527021000 60 60 2.0 3.0 0.00 0.00 0.00 81 1020.8
20180527020000 60 57 2.0 3.0 0.00 0.00 0.00 80 1020.8
20180527015459 60 68 0.0 3.0 0.00 0.00 0.00 80 1020.8
20180527015000 61 60 1.0 3.0 0.00 0.00 0.00 79 1020.8
20180527014500 61 65 2.0 5.0 0.00 0.00 0.00 78 1020.8
20180527014000 61 54 1.0 3.0 0.00 0.00 0.00 78 1020.8
20180527013500 62 71 0.0 2.0 0.00 0.00 0.00 77 1020.9
20180527013000 62 61 0.0 3.0 0.00 0.00 0.00 77 1020.9
20180527012500 62 60 2.0 6.0 0.00 0.00 0.00 77 1020.8
20180527011959 62 84 3.0 6.0 0.00 0.00 0.00 77 1020.8
20180527011000 62 69 2.0 5.0 0.00 0.00 0.00 77 1021.0
20180527010000 62 81 3.0 7.0 0.00 0.00 0.00 77 1021.0
20180527005459 63 80 3.0 6.0 0.00 0.00 0.00 77 1021.2
20180527005000 63 83 3.0 6.0 0.00 0.00 0.00 77 1021.2
20180527004500 63 77 4.0 8.0 0.00 0.00 0.00 77 1021.2
20180527003959 63 78 3.0 6.0 0.00 0.00 0.00 77 1021.2
20180527003500 63 73 2.0 6.0 0.00 0.00 0.00 76 1021.3
20180527003001 63 81 2.0 6.0 0.00 0.00 0.00 76 1021.4
20180527002500 63 67 3.0 5.0 0.00 0.00 0.00 76 1021.4
20180527002000 63 66 3.0 6.0 0.00 0.00 0.00 75 1021.4
20180527001500 64 67 3.0 6.0 0.00 0.00 0.00 75 1021.4
20180527000500 64 71 3.0 5.0 0.00 0.00 0.00 75 1021.5
20180526235459 64 83 3.0 6.0 0.00 0.00 0.00 74 1021.5
20180526235000 64 83 3.0 8.0 0.00 0.00 0.00 74 1021.7
20180526234500 64 76 3.0 6.0 0.00 0.00 0.00 74 1021.7
20180526234000 64 80 3.0 6.0 0.00 0.00 0.00 74 1021.6
20180526233500 65 80 3.0 8.0 0.00 0.00 0.00 74 1021.6
20180526233000 65 71 3.0 7.0 0.00 0.00 0.00 74 1021.6
20180526232500 65 79 3.0 7.0 0.00 0.00 0.00 74 1021.6
20180526232000 65 76 3.0 7.0 0.00 0.00 0.00 73 1021.6
20180526231459 65 67 3.0 5.0 0.00 0.00 0.00 73 1021.6
20180526230500 66 74 3.0 7.0 0.00 0.00 0.00 72 1021.6
20180526230000 66 78 3.0 7.0 0.00 0.00 0.00 72 1021.6
20180526225000 66 75 3.0 8.0 0.00 0.00 0.00 72 1021.7
20180526223000 66 83 3.0 7.0 0.00 0.00 0.00 72 1021.6
20180526222500 66 84 3.0 6.0 0.00 0.00 0.00 72 1021.6
20180526222000 66 76 4.0 9.0 0.00 0.00 0.00 72 1021.6
20180526221500 66 78 4.0 7.0 0.00 0.00 0.00 72 1021.6
20180526220500 65 74 3.0 5.0 0.00 0.00 0.00 72 1021.6
20180526220000 65 76 3.0 6.0 0.00 0.00 0.00 72 1021.6
20180526215500 65 73 2.0 5.0 0.00 0.00 0.00 72 1021.4
20180526215000 65 81 2.0 5.0 0.00 0.00 0.00 71 1021.4
20180526214459 65 53 3.0 6.0 0.00 0.00 0.00 71 1021.4
20180526214000 66 66 3.0 5.0 0.00 0.00 0.00 70 1021.4
20180526213500 66 61 2.0 5.0 0.00 0.00 0.00 69 1021.4
20180526212000 66 60 3.0 3.0 0.00 0.00 0.00 67 1021.3
20180526211000 67 53 2.0 5.0 0.00 0.00 0.00 66 1021.3
20180526210500 67 47 2.0 3.0 0.00 0.00 0.00 65 1021.3
20180526210000 67 66 2.0 5.0 0.00 0.00 0.00 64 1021.3
20180526204500 68 68 3.0 6.0 0.00 0.00 0.00 63 1021.3
20180526204000 68 76 3.0 6.0 0.00 0.00 0.00 62 1021.3
20180526203500 69 67 3.0 7.0 0.00 0.00 0.00 62 1021.3
20180526203000 69 62 3.0 6.0 0.00 0.00 0.00 62 1021.3
20180526202001 69 57 3.0 6.0 0.00 0.00 0.00 61 1021.2
20180526201000 70 61 3.0 6.0 0.00 0.00 0.00 60 1021.2
20180526200500 70 68 4.0 7.0 0.00 0.00 0.00 59 1021.2
20180526200000 71 62 3.0 6.0 0.00 0.00 0.00 59 1021.2
20180526195459 71 56 4.0 8.0 0.00 0.00 0.00 58 1020.9
20180526195000 72 61 5.0 8.0 0.00 0.00 0.00 58 1020.9
20180526194500 72 61 5.0 7.0 0.00 0.00 0.00 58 1020.9
20180526194000 72 63 4.0 8.0 0.00 0.00 0.00 57 1020.8
20180526192959 73 65 5.0 10.0 0.00 0.00 0.00 56 1020.8
20180526192500 73 65 5.0 10.0 0.00 0.00 0.00 56 1020.8
20180526190500 75 68 5.0 10.0 0.00 0.00 0.00 54 1020.7
20180526185959 75 73 6.0 12.0 0.00 0.00 0.00 54 1020.7
20180526185500 75 63 6.0 12.0 0.00 0.00 0.00 54 1020.6
20180526185000 76 74 5.0 12.0 0.00 0.00 0.00 54 1020.5
20180526184500 76 62 5.0 12.0 0.00 0.00 0.00 53 1020.5
20180526183500 77 60 6.0 12.0 0.00 0.00 0.00 51 1020.5
20180526183000 78 52 4.0 7.0 0.00 0.00 0.00 50 1020.5
20180526182459 78 59 4.0 8.0 0.00 0.00 0.00 48 1020.5
20180526182000 78 75 5.0 12.0 0.00 0.00 0.00 47 1020.5
20180526181459 79 64 4.0 7.0 0.00 0.00 0.00 47 1020.4
20180526180000 80 63 3.0 7.0 0.00 0.00 0.00 45 1020.4
20180526175459 81 71 3.0 8.0 0.00 0.00 0.00 44 1020.3
20180526174500 81 76 3.0 9.0 0.00 0.00 0.00 43 1020.3
20180526173500 82 60 5.0 10.0 0.00 0.00 0.00 42 1020.3
20180526173000 82 67 5.0 8.0 0.00 0.00 0.00 42 1020.2
20180526172500 82 73 5.0 10.0 0.00 0.00 0.00 42 1020.2
20180526172000 82 62 5.0 9.0 0.00 0.00 0.00 42 1020.2
20180526171500 82 82 5.0 10.0 0.00 0.00 0.00 42 1020.2
20180526170500 82 98 3.0 12.0 0.00 0.00 0.00 40 1020.1
20180526165000 83 88 6.0 12.0 0.00 0.00 0.00 40 1020.1
20180526164459 84 80 5.0 10.0 0.00 0.00 0.00 41 1020.2
20180526164000 83 89 4.0 7.0 0.00 0.00 0.00 42 1020.1
20180526162500 84 66 5.0 8.0 0.00 0.00 0.00 39 1020.2
20180526162000 84 76 6.0 8.0 0.00 0.00 0.00 39 1020.2
20180526161500 84 96 3.0 8.0 0.00 0.00 0.00 40 1020.2
20180526161000 85 88 2.0 12.0 0.00 0.00 0.00 39 1020.2
20180526160500 85 78 4.0 9.0 0.00 0.00 0.00 41 1020.2
20180526160001 85 101 5.0 10.0 0.00 0.00 0.00 39 1020.3
20180526154500 85 83 6.0 12.0 0.00 0.00 0.00 38 1020.3
20180526154000 84 88 2.0 8.0 0.00 0.00 0.00 40 1020.3
20180526153500 85 77 4.0 12.0 0.00 0.00 0.00 38 1020.3
20180526153000 85 100 3.0 6.0 0.00 0.00 0.00 37 1020.4
20180526152500 85 77 5.0 7.0 0.00 0.00 0.00 38 1020.4
20180526152000 85 105 5.0 12.0 0.00 0.00 0.00 39 1020.4
20180526151459 85 105 5.0 13.0 0.00 0.00 0.00 39 1020.4
20180526150959 85 79 5.0 9.0 0.00 0.00 0.00 38 1020.5
20180526145502 85 88 4.0 13.0 0.00 0.00 0.00 39 1020.5
20180526144501 85 90 7.0 14.0 0.00 0.00 0.00 38 1020.6
20180526144003 84 81 5.0 9.0 0.00 0.00 0.00 39 1020.6
20180526143002 85 98 3.0 8.0 0.00 0.00 0.00 40 1020.6
20180526142501 85 40 4.0 8.0 0.00 0.00 0.00 40 1020.6
20180526141502 85 79 5.0 12.0 0.00 0.00 0.00 40 1020.7
20180526140502 84 79 3.0 6.0 0.00 0.00 0.00 40 1020.6
20180526135501 84 107 6.0 9.0 0.00 0.00 0.00 41 1020.6
20180526134502 84 90 3.0 10.0 0.00 0.00 0.00 44 1020.7
20180526133502 84 126 3.0 12.0 0.00 0.00 0.00 44 1020.7
20180526132001 84 125 5.0 12.0 0.00 0.00 0.00 45 1020.8
20180526131501 84 62 5.0 12.0 0.00 0.00 0.00 45 1020.8
20180526131001 84 100 3.0 9.0 0.00 0.00 0.00 46 1020.8
20180526130503 83 106 3.0 12.0 0.00 0.00 0.00 48 1020.8
20180526130001 82 86 7.0 12.0 0.00 0.00 0.00 47 1020.9
20180526124502 83 68 3.0 14.0 0.00 0.00 0.00 48 1020.9
20180526123502 83 88 5.0 12.0 0.00 0.00 0.00 46 1021.2
20180526122002 82 74 6.0 12.0 0.00 0.00 0.00 47 1021.2
20180526121002 82 81 4.0 10.0 0.00 0.00 0.00 49 1021.2
20180526120503 82 84 6.0 12.0 0.00 0.00 0.00 50 1021.4
20180526120001 82 58 6.0 12.0 0.00 0.00 0.00 49 1021.4
20180526115501 81 87 3.0 9.0 0.00 0.00 0.00 52 1021.4
20180526114502 81 77 6.0 12.0 0.00 0.00 0.00 50 1021.4
20180526113503 81 84 8.0 12.0 0.00 0.00 0.00 50 1021.3
20180526113003 80 51 3.0 12.0 0.00 0.00 0.00 54 1021.4
20180526111502 80 61 5.0 12.0 0.00 0.00 0.00 53 1021.5
20180526111001 80 82 5.0 10.0 0.00 0.00 0.00 54 1021.5
20180526110502 79 78 5.0 7.0 0.00 0.00 0.00 54 1021.5
20180526110002 79 112 5.0 12.0 0.00 0.00 0.00 54 1021.5
20180526105501 79 69 3.0 8.0 0.00 0.00 0.00 55 1021.5
20180526105002 79 104 6.0 13.0 0.00 0.00 0.00 53 1021.4
20180526104502 79 73 5.0 13.0 0.00 0.00 0.00 55 1021.4
20180526104001 79 55 3.0 8.0 0.00 0.00 0.00 56 1021.6
20180526103502 79 107 4.0 8.0 0.00 0.00 0.00 55 1021.6
20180526103001 78 83 4.0 9.0 0.00 0.00 0.00 56 1021.6
20180526102502 78 46 3.0 8.0 0.00 0.00 0.00 56 1021.6
20180526102001 77 104 3.0 7.0 0.00 0.00 0.00 60 1021.6
20180526101002 77 55 4.0 7.0 0.00 0.00 0.00 58 1021.6
20180526100502 77 65 4.0 7.0 0.00 0.00 0.00 60 1021.6
20180526100003 76 71 3.0 9.0 0.00 0.00 0.00 60 1021.6
20180526095501 76 84 4.0 9.0 0.00 0.00 0.00 61 1021.6
20180526093502 75 92 5.0 9.0 0.00 0.00 0.00 60 1021.8
20180526093002 75 88 6.0 12.0 0.00 0.00 0.00 61 1021.6
20180526092501 74 76 6.0 12.0 0.00 0.00 0.00 60 1021.6
20180526090001 73 72 5.0 12.0 0.00 0.00 0.00 62 1021.4
20180526085501 73 71 6.0 9.0 0.00 0.00 0.00 63 1021.5
20180526085002 73 59 6.0 12.0 0.00 0.00 0.00 64 1021.5
20180526084001 72 54 5.0 10.0 0.00 0.00 0.00 63 1021.5
20180526083501 72 67 6.0 12.0 0.00 0.00 0.00 63 1021.5
20180526082500 71 62 4.0 12.0 0.00 0.00 0.00 65 1021.5